Theta_e
314 311 308 307 307 306 306 306 306 307 311 314 316 316 317 318 318 319 319 321 322 322 322 322 322 322 320 319 317 313 315 322 324 324 325 325 325 325 325 325 326 326 325 325 325 324 324 325 324 323 323 322 323 324 324 325 324 323 322 322 323 323 324
315 313 309 307 307 306 306 306 306 307 309 313 316 316 316 318 318 318 317 319 320 321 321 321 321 320 316 315 313 310 314 322 324 324 325 325 325 326 325 325 324 325 325 324 324 324 324 323 320 319 319 318 320 322 322 324 324 323 322 322 323 323 323
314 312 309 307 307 307 306 306 306 306 307 310 313 314 316 318 317 316 316 315 316 318 319 318 316 313 309 307 307 310 317 322 324 324 325 325 325 325 325 325 325 325 325 324 323 323 323 322 318 315 316 317 318 319 320 321 322 323 322 322 322 322 322
313 310 309 308 307 307 306 306 305 305 306 307 309 312 315 317 317 315 313 310 309 311 312 310 308 306 304 303 305 311 317 320 320 320 321 323 324 324 324 324 324 324 323 322 322 322 322 322 319 316 315 316 317 318 318 319 319 319 319 320 321 321 322
314 310 308 308 307 307 306 306 305 305 306 305 307 310 313 316 316 311 307 305 305 306 306 306 305 305 305 304 305 308 310 311 310 310 311 314 318 321 322 323 323 323 322 321 321 321 320 319 318 317 315 315 316 317 318 319 319 319 319 319 320 321 321
315 311 308 308 307 306 306 305 305 305 306 305 306 309 312 314 313 308 305 305 306 305 306 306 306 306 306 305 305 305 306 305 305 305 305 306 309 312 315 317 318 318 317 316 314 313 311 310 309 312 314 315 315 316 317 317 317 318 319 319 320 321 321
317 311 308 308 307 307 306 306 305 305 305 305 306 308 311 311 309 306 305 306 306 306 306 306 306 306 305 306 306 306 306 305 305 305 305 305 305 306 306 307 308 308 308 307 306 305 305 305 304 306 309 312 314 315 315 315 315 316 316 317 318 320 322
318 311 307 308 307 306 306 306 305 305 306 305 306 307 308 308 306 305 305 305 305 306 306 305 305 305 305 305 305 305 305 305 305 305 305 305 305 305 305 304 304 304 303 303 303 303 303 303 304 304 305 309 312 314 314 314 315 315 314 313 314 317 320
318 311 308 308 307 307 306 306 306 306 305 305 305 306 306 306 305 305 305 305 305 305 305 305 305 304 304 304 304 304 304 304 304 304 304 304 304 304 304 303 303 303 303 303 303 303 303 303 303 303 303 307 310 312 312 312 312 312 312 311 312 313 314
317 310 308 308 307 307 307 307 307 306 306 306 305 305 305 305 305 305 305 305 306 306 305 305 305 305 304 304 304 304 304 304 304 304 304 303 304 304 304 304 304 304 305 305 305 305 305 304 304 303 303 304 307 311 312 310 308 309 309 309 309 309 308
316 311 309 308 307 308 308 308 307 307 306 306 306 306 305 305 305 305 305 305 305 305 305 305 305 305 305 305 305 305 306 305 305 305 305 305 305 305 306 306 306 307 307 307 307 307 306 306 305 304 304 303 304 307 310 309 307 306 305 305 305 306 305
315 312 311 309 308 309 309 309 307 307 307 307 306 306 306 306 306 306 306 306 306 306 306 306 306 306 306 305 305 305 306 306 306 306 306 306 306 306 306 306 306 307 307 307 307 307 307 307 306 306 306 305 304 304 305 307 306 304 304 304 303 303 303
314 314 313 311 310 309 309 309 307 307 307 307 307 307 306 307 307 307 307 307 307 307 307 307 307 306 306 306 306 306 306 306 305 306 306 306 306 306 306 306 306 306 306 306 306 306 306 307 307 307 307 306 306 306 305 305 305 304 304 304 304 304 304
314 316 316 314 311 309 309 309 307 308 309 308 308 308 308 308 308 308 309 309 309 309 309 309 308 308 308 307 307 306 306 306 306 306 306 306 306 306 306 306 306 306 306 307 307 307 307 307 307 307 307 307 306 306 306 306 305 304 304 304 304 304 304
314 316 317 317 314 312 312 311 308 310 312 311 312 313 312 312 312 313 313 313 314 314 313 312 311 311 311 310 310 309 308 307 307 306 306 306 306 306 306 306 306 306 307 307 308 308 308 308 308 308 308 308 308 308 307 307 306 305 304 304 304 304 305
316 315 317 319 317 315 314 312 308 310 314 315 316 316 316 315 315 316 316 317 318 317 317 316 316 315 315 315 315 314 313 312 310 310 309 308 307 307 308 308 307 307 307 308 308 309 310 311 311 312 312 312 312 312 310 309 307 306 305 305 305 305 305
320 316 316 319 319 316 314 310 308 311 315 317 318 318 318 318 318 318 318 318 317 317 317 317 318 318 317 317 317 317 317 316 315 315 314 313 312 310 310 310 309 308 307 308 309 310 311 313 313 314 314 313 313 313 312 310 309 307 306 305 305 305 305
321 317 315 319 319 317 314 310 310 314 317 318 319 319 319 319 319 319 318 317 316 315 315 317 318 317 317 318 319 318 318 318 318 318 317 317 316 315 315 314 312 310 309 308 309 311 312 313 314 314 314 313 313 313 312 311 310 309 307 306 305 305 305
319 316 316 319 319 318 316 313 312 315 317 318 317 318 319 319 319 319 317 316 315 315 316 317 318 316 316 318 318 318 318 318 318 319 318 318 318 317 317 316 316 314 312 311 311 311 312 313 314 314 314 313 313 313 312 312 312 311 310 309 307 306 306
317 316 318 320 319 318 317 315 313 314 316 316 314 314 316 317 318 318 317 314 315 316 316 316 316 316 316 317 318 318 319 319 319 319 318 318 318 318 318 317 317 317 316 315 313 313 313 313 314 314 314 313 313 313 312 312 312 312 312 311 310 309 308
317 316 316 318 319 318 318 317 315 313 314 316 315 314 315 315 316 317 317 316 316 316 317 316 316 316 317 318 319 318 318 318 319 319 319 318 318 318 318 317 317 317 317 316 316 315 314 313 314 314 314 313 314 313 312 311 311 311 311 311 311 310 310
320 317 316 317 319 319 318 319 318 316 316 316 316 316 315 315 315 315 315 316 317 317 317 317 318 318 318 319 319 318 317 317 317 318 318 318 318 318 318 318 317 317 317 317 316 315 314 313 313 313 312 312 312 312 311 311 311 311 310 310 310 310 310
320 319 318 318 318 318 319 319 320 319 318 317 317 317 317 316 316 316 316 316 316 318 318 318 318 318 318 318 318 317 317 317 317 317 317 317 317 317 318 318 318 317 317 317 316 315 314 313 313 313 312 311 311 310 310 310 310 309 309 308 308 309 309
320 319 319 318 317 318 319 319 319 319 319 319 318 318 317 317 317 317 317 316 317 318 318 318 319 319 319 319 318 318 317 317 317 317 317 317 317 317 318 318 317 317 317 317 316 315 315 314 313 313 313 311 310 310 310 310 309 308 308 308 308 308 308
319 319 319 318 318 318 319 318 318 319 319 318 318 317 315 315 316 316 317 317 318 318 318 319 319 318 318 317 317 318 318 318 319 318 318 318 318 318 318 318 318 317 317 317 316 315 314 314 313 311 310 310 310 310 310 309 308 308 307 307 307 307 307
319 319 318 318 318 318 318 318 317 317 316 315 315 314 314 315 315 316 317 317 317 317 318 318 317 316 314 313 313 313 314 315 316 317 318 318 318 319 319 319 318 318 317 317 316 316 315 313 312 310 310 310 310 310 309 308 307 307 306 306 306 306 305
315 315 315 315 314 314 314 314 314 314 313 313 314 314 315 315 315 316 316 315 315 315 315 315 314 313 313 312 311 310 308 308 309 310 311 312 313 315 316 316 317 317 317 317 317 317 315 313 311 310 310 310 310 309 308 307 306 306 306 305 305 305 304
310 310 310 310 310 311 311 312 312 312 312 312 312 313 313 313 313 313 313 312 311 311 311 311 311 311 312 311 310 307 305 304 304 304 305 306 307 308 309 312 315 316 317 317 317 316 314 312 311 310 310 310 309 308 307 306 305 305 305 305 305 304 303
308 308 308 308 308 309 309 310 310 310 309 309 309 309 310 310 310 310 310 309 309 309 309 309 309 309 310 310 309 307 305 304 304 304 304 305 305 306 307 310 314 316 317 316 315 313 312 311 310 310 310 309 309 307 306 305 305 305 305 304 304 303 303
307 307 307 307 307 308 308 308 308 308 307 307 306 306 306 305 305 305 305 306 306 307 307 307 308 308 308 309 309 308 307 306 305 304 304 304 305 307 310 312 314 315 315 314 313 311 310 310 309 309 309 308 307 306 306 305 305 304 304 304 303 303 302
306 306 306 306 307 307 307 307 307 306 305 304 303 303 302 302 301 301 301 301 302 302 303 304 305 306 307 309 310 310 309 309 307 306 305 304 305 307 310 311 312 313 313 312 310 309 308 308 308 309 308 307 306 305 304 304 304 304 303 303 302 302 300
306 306 306 306 306 307 307 307 306 305 304 304 303 303 302 302 302 302 301 301 301 301 301 301 302 303 305 308 309 309 310 310 310 309 308 307 306 306 307 309 311 311 310 309 308 307 308 308 308 308 307 305 305 304 304 304 303 303 302 301 300 299 297
306 306 306 306 307 307 307 307 306 305 306 305 304 303 303 303 303 303 302 302 301 301 301 300 300 301 303 306 308 309 310 311 311 310 309 308 307 306 306 307 308 309 309 308 308 308 308 308 307 306 305 304 304 303 303 303 303 302 301 300 298 296 295
306 306 306 306 306 306 306 307 307 306 306 306 304 304 304 303 303 303 303 303 302 301 300 300 300 300 302 305 308 309 311 312 311 310 310 309 308 308 307 307 307 307 308 308 308 307 307 306 305 304 304 303 303 303 303 302 302 301 300 298 296 294 293
305 305 306 306 306 306 306 306 306 306 306 305 304 304 304 304 304 304 304 304 303 302 301 300 300 301 302 305 308 310 311 311 311 310 309 309 308 308 308 307 307 306 306 306 306 305 305 304 304 303 303 302 302 302 302 301 300 298 297 295 294 293 293
304 304 305 305 305 305 305 306 306 306 305 304 304 304 304 304 304 304 304 304 304 303 302 301 301 301 303 306 308 309 310 310 309 309 308 307 307 307 306 306 306 305 305 305 305 304 303 303 302 302 302 302 302 301 300 298 296 295 294 293 293 293 293
303 303 304 304 304 304 305 305 305 305 305 305 304 304 304 304 304 304 304 304 304 303 303 302 302 302 303 304 306 307 308 308 307 307 307 306 306 305 305 305 304 304 303 303 303 303 302 302 302 302 301 300 299 297 295 294 293 293 293 293 293 293 293
Wind_Speed
1 2 2 3 4 4 5 5 6 6 5 4 3 3 2 2 3 3 4 4 4 4 5 5 5 4 3 2 2 3 3 2 1 2 4 6 7 8 8 9 8 7 5 4 3 3 2 4 7 5 3 2 2 4 5 5 5 5 4 5 7 6 6
3 3 3 4 4 4 4 5 5 5 5 4 3 3 3 2 2 3 4 4 3 3 3 3 2 2 2 2 2 2 4 5 4 3 2 2 2 4 5 7 8 6 6 5 3 3 3 6 10 8 5 3 1 1 1 2 2 4 3 2 4 5 5
4 4 4 4 4 4 4 5 5 5 5 5 4 4 3 3 3 4 5 4 2 1 1 1 2 2 3 2 1 3 5 6 7 7 6 5 4 2 1 2 5 4 5 5 3 2 2 5 10 12 8 5 5 6 4 2 1 1 2 3 4 5 6
5 4 4 4 4 4 5 5 4 4 4 4 4 3 3 3 4 5 6 4 3 3 3 3 3 2 1 2 4 6 6 7 7 8 7 8 7 5 6 5 3 2 3 5 5 4 3 5 8 10 9 8 9 9 9 7 5 3 2 3 4 4 5
5 4 4 4 4 4 5 4 3 3 4 4 4 3 3 3 5 6 6 6 7 7 7 7 7 7 7 8 8 8 7 7 7 8 7 8 7 6 7 7 5 5 6 6 5 3 3 3 4 6 7 6 9 11 11 10 8 6 4 2 1 1 2
6 5 4 3 3 3 3 3 3 3 3 4 3 2 2 3 4 5 6 7 8 8 8 7 7 8 8 9 9 9 9 9 10 9 9 9 9 7 7 6 5 4 4 3 3 3 3 2 2 5 7 7 8 10 9 8 9 9 8 6 5 3 1
7 5 4 2 1 1 2 2 2 3 3 3 3 3 3 3 3 4 5 5 6 6 6 6 6 7 7 8 8 8 8 9 10 10 10 10 9 9 9 8 7 6 5 5 5 5 6 5 5 5 7 9 8 7 7 7 7 7 8 8 6 4 2
8 6 6 3 2 2 1 2 2 3 3 2 3 4 4 4 4 4 3 2 4 4 5 5 6 7 8 8 8 8 8 9 9 9 9 9 10 10 10 9 9 8 8 8 8 7 7 7 6 5 6 9 10 9 8 7 7 7 8 8 6 4 3
9 8 8 6 5 4 3 2 2 2 2 2 2 3 4 5 5 5 3 2 2 3 4 6 7 9 10 10 11 10 10 11 11 10 11 11 11 11 11 10 9 9 9 10 10 10 10 9 8 6 4 6 10 11 10 9 7 7 7 5 4 4 3
10 10 9 8 6 5 6 4 2 1 2 1 2 2 3 4 5 5 4 3 2 3 3 5 6 8 10 11 12 12 12 13 13 13 13 12 13 12 12 12 11 11 12 12 12 12 12 12 11 9 7 5 6 9 10 9 7 6 5 3 2 2 2
12 11 11 9 8 8 8 6 5 4 3 3 2 2 2 3 3 3 4 3 3 2 2 3 4 5 7 9 10 11 11 12 12 12 13 12 13 13 12 11 11 11 12 11 11 12 12 12 12 11 10 9 6 6 8 8 6 4 3 2 1 1 1
14 14 14 13 12 12 10 9 8 7 6 5 4 3 3 2 2 2 2 3 2 2 2 2 2 3 4 5 6 7 9 10 9 10 10 10 10 10 10 9 9 9 9 9 9 9 10 10 10 9 10 10 9 8 7 7 6 4 3 2 3 2 2
17 17 17 15 15 14 13 12 12 9 8 7 5 5 4 3 3 2 2 2 2 1 1 1 1 1 2 2 2 3 4 6 6 6 7 7 7 7 7 7 6 6 7 7 7 7 7 7 7 7 7 7 7 8 7 6 5 5 3 2 3 3 4
20 19 18 16 16 15 13 14 14 11 10 9 7 6 5 4 4 3 3 2 2 2 2 2 2 2 1 1 0 0 0 1 2 3 3 3 4 4 4 4 4 4 5 5 5 5 5 5 5 5 5 5 5 5 5 4 4 4 3 2 2 3 4
22 21 19 17 17 17 15 16 16 13 12 11 9 8 7 6 5 5 4 3 3 3 4 4 3 3 2 2 1 1 2 3 2 2 2 1 1 2 2 2 1 2 3 3 3 4 4 4 4 5 5 5 5 5 5 4 3 3 2 2 3 4 5
24 24 21 19 19 19 18 18 17 15 14 14 12 10 9 8 7 6 5 5 4 3 4 6 6 5 3 2 1 1 2 2 3 3 3 3 3 2 2 2 1 1 2 2 2 3 3 4 4 5 5 5 6 6 6 6 5 4 4 4 4 6 7
24 26 25 21 21 21 20 19 18 17 16 16 15 12 11 10 9 9 8 7 6 6 6 7 7 7 5 3 2 2 2 2 2 3 3 4 4 4 4 3 2 1 0 1 1 2 2 3 4 5 6 7 7 7 8 8 8 7 7 7 7 8 9
24 27 27 23 22 21 20 20 19 18 18 18 16 14 14 13 13 12 12 11 11 10 10 9 10 12 10 6 5 4 4 3 3 3 3 4 4 4 5 4 4 2 2 1 1 1 2 2 3 5 6 7 8 8 9 9 10 10 10 10 10 10 11
23 26 26 24 23 21 20 21 20 19 19 19 17 15 15 15 16 16 15 14 15 15 15 14 15 17 16 12 9 8 8 7 7 7 7 6 6 6 5 5 5 4 3 3 3 4 4 3 3 5 6 8 8 9 9 10 11 12 12 12 13 13 13
23 24 23 22 22 21 20 20 20 21 21 22 21 21 20 18 16 17 17 17 18 19 18 18 18 18 17 16 13 12 12 11 10 11 12 11 11 10 8 8 7 6 5 5 5 6 6 6 6 6 7 8 9 10 11 11 12 12 13 14 15 15 16
22 23 21 19 20 21 20 19 19 21 21 20 21 23 23 21 19 19 19 20 22 21 19 19 18 16 15 16 15 14 14 14 14 14 14 15 15 14 13 11 10 10 9 8 8 8 8 8 9 9 8 9 10 11 11 11 12 13 15 16 17 17 18
17 20 21 19 19 20 21 20 20 20 20 19 20 21 22 22 23 24 22 21 21 21 20 20 18 15 14 15 16 17 18 18 17 17 17 17 17 16 16 15 14 14 13 13 13 12 11 11 11 11 11 10 11 11 9 8 11 14 16 18 19 19 18
15 18 20 20 19 19 19 20 19 19 19 20 19 19 19 20 22 23 22 22 21 22 21 19 15 14 15 16 18 20 21 19 18 18 18 18 17 16 16 16 16 16 17 17 18 16 15 14 14 13 14 13 12 10 7 8 11 14 16 18 18 19 19
12 14 17 19 20 18 18 18 17 17 18 19 18 17 17 19 20 20 20 20 19 19 16 14 12 12 14 16 17 18 18 18 18 18 17 17 17 17 17 17 18 19 19 20 21 20 19 18 17 16 16 16 14 12 9 9 12 14 15 17 18 19 20
11 12 13 15 17 17 18 17 17 17 17 18 17 16 14 14 13 13 13 13 13 12 10 9 9 10 10 11 12 12 13 14 15 15 15 15 15 17 18 19 20 21 21 21 22 23 22 20 19 18 17 16 15 13 11 10 13 14 15 17 18 20 21
11 12 12 14 15 16 16 17 16 16 15 14 13 12 10 9 8 9 9 8 7 7 7 7 8 7 7 7 8 8 9 10 11 12 12 12 13 14 15 16 17 19 20 21 21 22 23 21 20 19 18 17 16 14 12 13 14 15 17 18 20 21 22
9 11 12 13 12 12 13 12 12 11 11 10 9 8 7 7 7 7 7 6 6 6 7 8 8 8 9 9 9 9 9 10 11 11 12 12 13 13 13 14 15 15 17 18 18 19 21 21 21 20 19 18 16 15 14 15 16 17 19 22 22 23 24
8 9 10 11 10 9 9 9 9 8 8 7 6 6 6 6 7 7 8 9 9 10 10 11 10 10 10 10 10 10 10 11 11 12 12 13 13 14 14 14 15 15 14 14 14 17 20 21 21 20 19 18 16 15 15 16 18 19 21 23 24 24 26
7 7 7 7 7 7 7 8 8 8 7 7 7 7 8 8 9 11 11 12 12 12 12 11 11 10 10 9 9 10 10 11 11 11 11 11 11 12 13 14 15 14 14 12 12 15 18 20 20 19 18 17 16 15 16 18 20 22 23 23 24 26 28
7 8 7 7 7 7 7 7 7 7 8 8 8 9 9 10 10 10 11 11 12 12 11 11 11 10 10 9 9 9 10 11 12 12 11 10 10 10 11 12 12 12 11 9 10 14 18 19 19 18 17 16 16 16 17 20 22 23 24 24 25 27 29
8 7 7 7 8 9 9 8 9 8 8 8 7 7 7 6 6 7 7 9 10 11 11 11 11 11 11 10 9 10 11 12 13 13 13 12 9 8 8 8 7 7 6 6 9 14 17 18 17 17 16 16 16 17 19 21 23 24 24 25 27 29 30
10 9 9 8 9 10 10 10 9 9 8 8 7 6 5 5 6 6 7 9 10 11 13 13 14 14 13 12 11 11 11 12 13 13 13 12 11 9 7 6 5 5 5 7 11 14 16 16 16 16 16 16 17 19 20 22 24 25 26 27 29 29 29
10 10 10 9 9 10 10 10 10 10 10 9 9 7 6 7 8 8 9 10 10 11 13 14 15 15 15 14 13 12 11 12 12 12 12 11 10 9 8 6 6 6 8 11 14 15 16 16 16 16 16 17 18 20 22 24 26 27 28 30 30 30 29
17 17 17 17 16 15 14 14 13 13 13 12 11 10 9 9 10 10 10 11 11 12 12 13 13 14 14 13 12 11 10 10 10 10 9 9 8 8 8 7 7 8 10 12 14 16 16 16 15 15 17 19 20 22 23 26 28 29 30 31 31 31 31
20 20 21 22 21 21 21 19 18 16 15 14 13 12 11 10 10 10 11 12 13 13 13 13 13 12 11 11 10 8 8 8 8 8 7 7 6 7 8 9 9 10 11 13 14 16 16 16 15 16 19 21 22 24 26 27 29 30 30 30 31 31 31
18 18 20 20 20 21 22 21 20 18 17 16 14 13 12 11 11 11 12 12 13 15 14 13 12 11 10 9 8 8 7 7 8 8 7 7 8 9 10 10 10 12 13 13 14 15 16 16 17 19 21 23 24 26 27 27 28 28 28 29 30 30 30
21 21 22 22 22 22 22 22 21 21 19 18 16 14 13 12 12 13 13 14 13 14 14 12 10 9 7 7 7 8 7 8 9 9 9 10 11 12 11 10 11 13 13 14 15 16 17 19 20 21 23 23 24 25 25 25 26 27 28 28 29 29 29
Wind_Direction
290 310 313 311 312 312 318 331 333 330 336 351 12 31 55 59 60 77 92 100 104 104 104 98 96 94 85 70 38 34 54 83 160 218 218 222 233 232 229 230 228 226 209 203 212 198 186 123 119 144 147 131 219 241 251 250 242 238 235 229 223 224 240
266 284 297 295 302 311 318 330 331 327 331 340 7 45 77 79 60 71 83 95 107 116 108 79 37 5 346 337 351 40 72 80 85 93 120 158 207 221 231 230 218 191 156 157 161 164 162 112 107 113 102 88 92 38 300 259 242 239 238 213 205 215 236
278 293 295 286 295 314 321 325 329 333 337 337 357 48 80 76 60 54 48 50 78 119 122 26 345 326 305 294 153 121 103 93 90 89 92 92 94 101 61 214 201 180 155 154 130 98 126 118 113 113 108 104 96 77 65 62 39 295 279 266 245 249 261
292 299 288 284 305 325 322 324 334 344 352 349 354 37 64 56 39 27 22 31 65 101 106 95 86 73 69 112 127 126 117 108 98 92 94 93 89 81 70 80 112 96 78 95 95 89 98 114 123 124 114 99 96 89 81 75 63 35 344 289 266 265 270
289 292 280 288 321 334 323 325 349 3 14 14 8 24 44 41 26 28 49 68 83 96 99 96 90 82 80 87 99 106 105 102 97 93 98 100 95 89 85 82 80 70 63 72 82 91 93 97 126 141 137 117 104 98 90 84 80 72 62 49 354 272 261
276 274 256 280 332 345 331 342 21 31 37 38 38 47 57 47 35 49 74 79 83 89 92 92 90 85 83 84 89 93 90 87 88 90 93 95 94 94 95 93 88 84 73 68 69 68 71 74 107 139 153 151 126 111 102 89 82 78 76 76 75 78 113
266 254 224 236 9 13 353 31 60 62 66 64 73 94 103 88 72 75 77 73 77 80 78 80 81 83 85 87 89 90 91 90 90 92 91 90 89 88 87 86 83 80 73 70 70 71 77 86 97 121 151 161 150 133 118 100 92 89 84 79 78 83 101
254 236 205 187 130 121 108 91 85 82 87 89 102 116 123 122 116 108 96 76 74 73 73 76 77 82 83 84 87 87 90 92 92 94 94 92 91 89 85 82 78 77 73 69 66 63 66 74 87 102 137 158 156 142 127 120 117 104 93 91 89 88 94
241 224 200 174 148 151 155 131 95 99 117 117 120 133 142 144 142 136 136 128 99 89 88 87 85 87 86 85 86 87 87 88 88 89 89 88 89 87 85 82 79 78 76 71 67 65 64 66 73 82 107 156 163 149 132 123 118 111 106 107 100 90 83
237 219 194 172 168 175 163 154 182 200 167 155 151 155 160 164 162 158 159 165 153 130 113 105 98 94 94 93 93 91 89 89 90 90 90 89 89 87 84 84 83 81 78 75 72 70 68 67 69 76 84 113 156 163 151 131 113 113 117 110 91 81 62
230 208 188 178 183 186 177 177 205 221 207 194 191 180 185 190 179 174 176 182 189 175 141 123 109 101 100 100 101 101 98 96 96 96 97 96 94 91 89 87 85 82 79 77 75 73 72 70 71 76 82 87 104 149 163 152 127 107 103 91 72 43 16
221 205 197 195 195 203 217 216 209 220 218 205 203 192 191 195 186 182 180 183 194 192 168 136 118 105 100 98 101 106 105 105 103 100 101 101 98 96 92 87 81 77 75 73 73 75 75 73 74 76 80 87 95 107 130 146 135 108 91 65 45 23 3
212 207 207 208 210 216 223 211 204 218 220 210 213 205 197 200 199 200 195 194 204 197 194 176 150 124 112 104 98 105 109 111 112 108 106 106 103 101 94 87 79 72 71 67 66 69 71 71 69 68 71 77 87 96 104 116 117 107 94 52 30 14 2
208 209 212 211 215 215 211 207 207 217 219 212 210 204 202 206 206 215 217 224 245 243 247 241 226 229 209 198 240 289 317 100 113 106 106 111 110 104 95 91 88 80 77 75 72 70 68 66 61 54 51 47 49 59 70 80 89 87 66 30 4 350 347
211 215 215 212 213 209 208 212 211 213 219 216 209 204 206 207 209 219 220 229 255 272 281 279 267 259 251 254 271 294 310 312 322 349 6 17 70 84 71 60 74 82 82 84 82 80 75 68 59 49 40 31 25 21 16 17 26 30 15 351 330 326 327
221 222 219 218 217 212 212 215 213 214 220 221 218 216 218 218 220 225 224 225 239 264 286 290 289 281 266 267 293 329 332 326 324 326 329 327 325 331 349 355 352 51 78 79 76 77 72 61 49 38 27 17 9 4 357 349 342 335 327 315 303 306 308
230 223 220 223 222 218 220 222 219 219 221 223 225 228 232 234 240 244 242 240 244 253 265 275 279 276 273 284 300 316 334 332 331 328 324 322 316 313 315 316 304 278 148 74 59 55 55 48 33 19 8 360 353 347 342 339 334 327 324 319 312 308 309
233 222 221 224 223 222 225 226 222 221 225 229 235 245 248 247 251 252 250 256 265 267 263 262 265 268 274 280 279 283 290 294 303 309 310 313 312 315 319 317 309 288 260 268 299 320 333 4 12 1 352 346 340 335 334 333 332 331 330 326 322 319 317
227 220 221 224 223 224 228 229 223 221 229 236 240 249 253 250 249 249 251 260 270 273 268 266 269 271 273 272 269 273 276 277 283 285 285 288 288 291 298 302 305 299 281 273 274 282 287 289 304 324 335 338 336 336 334 331 330 331 330 328 325 323 320
222 219 221 223 223 225 231 234 229 228 237 244 242 241 244 248 250 251 253 255 260 266 267 267 272 273 271 269 270 272 272 271 273 275 276 277 276 276 277 278 281 282 280 278 274 276 279 277 280 296 314 326 330 333 331 327 327 325 324 324 322 320 319
225 225 228 227 224 226 233 240 239 236 240 247 245 240 241 247 254 258 259 258 258 260 262 267 270 270 269 270 273 276 276 274 271 269 269 270 270 271 271 271 271 269 268 267 265 266 268 270 275 281 287 297 305 309 311 316 320 320 319 318 317 316 317
230 232 235 232 228 231 236 241 243 241 243 248 249 247 249 254 257 258 260 261 258 256 260 267 269 271 273 272 271 274 276 274 270 266 264 265 268 268 267 268 269 268 266 263 260 260 260 261 266 270 273 276 281 285 290 303 312 315 317 317 315 315 315
231 234 234 233 233 236 239 240 243 244 247 253 255 255 258 261 259 258 259 260 257 257 263 268 268 273 275 269 267 270 271 270 266 262 259 258 258 258 258 260 264 266 267 266 265 264 264 263 263 265 267 268 269 271 280 299 309 317 321 321 318 316 313
232 233 233 234 237 240 241 241 244 247 250 256 259 258 260 260 258 256 256 255 253 256 260 262 263 265 264 263 265 266 266 265 263 261 260 258 256 254 252 251 254 258 261 263 265 266 266 266 265 266 267 266 265 265 276 300 314 322 324 321 318 314 310
227 227 229 232 234 237 239 241 245 249 251 253 253 250 250 250 246 241 241 243 245 248 247 244 245 249 253 260 264 264 265 266 265 265 266 264 263 261 257 253 252 253 254 258 263 266 266 265 263 261 261 262 265 266 275 299 314 320 321 319 317 312 308
221 220 223 227 229 230 234 236 237 237 237 236 237 236 235 233 226 221 223 227 233 238 236 236 242 253 265 273 274 275 276 273 272 274 273 271 270 267 266 263 260 256 254 255 259 265 266 262 257 256 259 264 271 274 281 302 316 320 321 319 316 312 310
210 208 207 208 212 214 214 215 215 214 217 220 225 227 227 227 225 221 225 236 246 253 253 254 261 271 279 286 291 293 290 286 283 282 278 278 277 274 273 273 270 265 258 253 256 263 265 259 253 255 262 269 276 281 291 307 316 319 320 318 314 312 313
211 205 202 200 200 199 198 199 200 201 203 207 216 227 234 241 247 253 261 268 271 272 271 269 269 271 276 287 297 300 299 296 293 290 285 282 279 276 273 269 266 264 258 251 253 260 261 256 254 258 265 272 280 288 298 306 310 314 316 314 311 311 313
231 222 220 220 217 211 204 200 197 198 202 212 226 238 246 253 260 264 266 268 267 267 268 269 268 268 273 286 298 306 310 309 307 305 302 296 289 282 275 268 262 258 252 247 248 252 252 252 255 260 266 275 284 292 298 304 308 311 311 309 309 310 311
246 242 239 234 226 218 210 206 212 222 231 236 238 239 242 245 249 253 254 257 259 259 261 262 263 266 272 282 295 304 311 314 315 315 314 309 300 287 276 268 260 253 251 249 243 240 243 247 253 260 268 277 284 288 294 301 306 307 306 307 307 307 307
233 236 237 232 224 222 221 226 237 242 237 232 227 226 229 229 232 241 249 255 260 262 263 265 265 267 270 275 283 293 302 308 311 313 316 316 307 291 276 269 262 257 259 251 236 233 238 245 254 264 273 279 283 287 294 302 305 305 305 305 303 302 302
230 231 235 237 234 233 234 237 241 236 227 226 229 231 232 231 236 248 256 260 264 264 264 265 266 268 269 270 274 281 290 299 304 308 314 318 318 311 303 298 297 286 260 236 230 235 243 254 264 273 280 286 291 295 300 304 304 302 300 299 298 298 299
233 233 237 239 233 231 235 238 239 236 233 239 247 251 250 247 249 256 262 268 273 273 271 269 268 268 267 266 267 272 280 289 296 302 310 316 320 320 316 310 300 284 263 248 244 248 256 266 275 282 289 297 301 302 303 301 298 295 294 295 296 297 298
244 241 243 246 243 241 244 245 244 244 244 248 254 257 258 258 260 266 273 282 289 290 286 281 275 272 267 262 261 266 272 277 283 293 305 313 313 311 307 297 285 276 272 268 265 265 267 271 277 288 298 303 302 299 296 293 291 291 293 295 297 300 302
250 246 245 245 243 240 241 243 244 243 244 249 255 257 258 262 268 275 284 294 300 301 297 289 283 279 272 263 259 260 263 268 277 288 298 304 304 300 295 290 284 278 276 275 274 274 272 272 279 292 299 299 295 291 290 289 290 292 294 296 299 301 302
245 245 243 240 237 233 232 234 235 238 244 251 255 254 256 263 270 277 285 294 300 303 301 295 288 283 275 266 261 259 260 266 275 280 282 285 289 290 288 287 285 281 280 280 283 285 284 283 287 292 293 292 290 289 290 290 292 294 296 298 300 301 302
242 242 241 241 240 237 234 234 234 238 244 248 248 249 256 264 270 276 283 289 293 298 299 296 289 284 284 278 269 265 264 265 266 269 274 278 280 281 281 283 285 285 286 287 286 287 288 289 291 292 292 290 290 291 293 295 298 299 301 303 304 304 305